User: anonymous   Login
Location: Unspecified
(0.0000°N, 0.0000°E)
Time: 08:28:56
(UTC+00:00)
Language:

Courier 1B Rocket - Orbit

View from above orbital plane
View from above orbital plane
View from above satellite
View from above satellite

Ground track
Ground track

The orbit data is extracted from the following two-line orbital elements,

1    59U 60013B   20093.84128093 +.00000091 +00000-0 +76951-5 0  9996
2    59 028.2480 246.6083 0189287 011.5214 348.9586 13.52975506936350
Epoch (UTC): 02 April 2020 20:11:26
Eccentricity: 0.0189287
inclination: 28.2480°
perigee height: 920 km
apogee height: 1202 km
right ascension of ascending node: 246.6083°
argument of perigee: 11.5214°
revolutions per day: 13.52975506
mean anomaly at epoch: 348.9586°
orbit number at epoch: 93635

The dashed part of the orbit path shows where the satellite is in the earth's shadow,  

DLR